When you browse on this site, cookies collect data to enhance your experience and personalize the content and advertising you see.
Visit our Privacy Policy to learn more. By continuing to use the site, you agree to this use of cookies and data.
  • In Belgium
  • List of Countries
  • For 7 days
  • Water Temperature
  • Satellite Maps
  • Weather Map
  • Weather Widgets
  • user-avatar
    Login

    Hourly Weather Oleshky (Cyuryupinsk)

    Today, 19 January, Saturday

    Time Temperature Precipitation Wind Pressure Humidity
    00:00 +2°C° 0 mm 3 mps 760 mmHg 91%
    01:00 +2°C° 0 mm 3 mps 760 mmHg 92%
    02:00 +2°C° 0 mm 3 mps 760 mmHg 93%
    03:00 +1°C° 0 mm 3 mps 760 mmHg 93%
    04:00 +1°C° 0 mm 3 mps 760 mmHg 92%
    05:00 +1°C° 0 mm 3 mps 760 mmHg 92%
    06:00 0°C° 0 mm 3 mps 761 mmHg 92%
    07:00 -1°C° 0 mm 4 mps 761 mmHg 91%
    08:00 -2°C° 0 mm 5 mps 762 mmHg 90%
    09:00 -1°C° 0 mm 5 mps 762 mmHg 86%
    10:00 -1°C° 0 mm 6 mps 763 mmHg 82%
    11:00 +1°C° 0 mm 6 mps 764 mmHg 77%
    12:00 +1°C° 0 mm 6 mps 764 mmHg 74%
    13:00 +1°C° 0 mm 6 mps 765 mmHg 70%
    14:00 +1°C° 0 mm 5 mps 765 mmHg 65%
    15:00 0°C° 0 mm 5 mps 766 mmHg 67%
    16:00 -2°C° 0 mm 4 mps 766 mmHg 69%
    17:00 -2°C° 0 mm 3 mps 767 mmHg 71%
    18:00 -2°C° 0 mm 3 mps 767 mmHg 73%
    19:00 -4°C° 0 mm 3 mps 767 mmHg 74%
    20:00 -4°C° 0 mm 3 mps 768 mmHg 75%
    21:00 -3°C° 0 mm 2 mps 768 mmHg 75%
    22:00 -3°C° 0 mm 2 mps 768 mmHg 74%
    23:00 -3°C° 0 mm 2 mps 769 mmHg 74%

    Tomorrow, 20 January, Sunday

    Time Temperature Precipitation Wind Pressure Humidity
    00:00 -3°C° 0 mm 2 mps 769 mmHg 73%
    01:00 -3°C° 0 mm 2 mps 769 mmHg 73%
    02:00 -4°C° 0 mm 2 mps 769 mmHg 72%
    03:00 -4°C° 0 mm 2 mps 769 mmHg 72%
    04:00 -4°C° 0 mm 2 mps 768 mmHg 71%
    05:00 -4°C° 0 mm 2 mps 768 mmHg 70%
    06:00 -5°C° 0 mm 3 mps 768 mmHg 69%
    07:00 -5°C° 0 mm 3 mps 768 mmHg 68%
    08:00 -5°C° 0 mm 3 mps 768 mmHg 67%
    09:00 -4°C° 0 mm 3 mps 768 mmHg 64%
    10:00 -2°C° 0 mm 3 mps 768 mmHg 60%
    11:00 -2°C° 0 mm 4 mps 768 mmHg 56%
    12:00 -2°C° 0 mm 4 mps 767 mmHg 56%
    13:00 0°C° 0 mm 3 mps 767 mmHg 57%
    14:00 0°C° 0 mm 3 mps 766 mmHg 58%
    15:00 0°C° 0 mm 3 mps 766 mmHg 63%
    16:00 -1°C° 0 mm 3 mps 766 mmHg 69%
    17:00 -1°C° 0 mm 3 mps 765 mmHg 74%
    18:00 -1°C° 0 mm 3 mps 765 mmHg 77%
    19:00 -2°C° 0 mm 4 mps 765 mmHg 79%
    20:00 -2°C° 0 mm 4 mps 764 mmHg 82%
    21:00 -2°C° 0.1 mm 4 mps 764 mmHg 83%
    22:00 -2°C° 0.1 mm 4 mps 763 mmHg 84%
    23:00 -1°C° 0.1 mm 4 mps 762 mmHg 85%

    Day after tomorrow, 21 January, Monday

    Time Temperature Precipitation Wind Pressure Humidity
    00:00 -1°C° 0.4 mm 4 mps 762 mmHg 86%
    01:00 -1°C° 0.4 mm 4 mps 761 mmHg 87%
    02:00 -1°C° 0.4 mm 4 mps 761 mmHg 88%
    03:00 0°C° 1.8 mm 4 mps 760 mmHg 90%
    04:00 +1°C° 1.8 mm 5 mps 759 mmHg 93%
    05:00 +1°C° 1.8 mm 5 mps 758 mmHg 95%
    06:00 +2°C° 1.1 mm 5 mps 758 mmHg 95%
    07:00 +2°C° 1.1 mm 5 mps 758 mmHg 96%
    08:00 +3°C° 1.1 mm 5 mps 758 mmHg 96%
    09:00 +2°C° 0.1 mm 6 mps 758 mmHg 94%
    10:00 +1°C° 0.1 mm 6 mps 759 mmHg 92%
    11:00 +1°C° 0.1 mm 6 mps 760 mmHg 90%
    12:00 -1°C° 0 mm 7 mps 760 mmHg 86%
    13:00 -1°C° 0 mm 7 mps 761 mmHg 83%
    14:00 -2°C° 0 mm 8 mps 761 mmHg 80%
    15:00 -3°C° 0 mm 7 mps 762 mmHg 79%
    16:00 -3°C° 0 mm 7 mps 763 mmHg 78%
    17:00 -4°C° 0 mm 7 mps 764 mmHg 77%
    18:00 -4°C° 0 mm 6 mps 764 mmHg 79%
    19:00 -5°C° 0 mm 6 mps 765 mmHg 80%
    20:00 -6°C° 0 mm 5 mps 766 mmHg 81%
    21:00 -7°C° 0 mm 5 mps 766 mmHg 80%
    22:00 -7°C° 0 mm 5 mps 767 mmHg 79%
    23:00 -7°C° 0 mm 5 mps 767 mmHg 79%

    22 January, Tuesday

    Time Temperature Precipitation Wind Pressure Humidity
    00:00 -8°C° 0 mm 4 mps 767 mmHg 78%
    01:00 -8°C° 0 mm 4 mps 768 mmHg 77%
    02:00 -8°C° 0 mm 4 mps 768 mmHg 77%
    03:00 -8°C° 0 mm 4 mps 768 mmHg 76%
    04:00 -8°C° 0 mm 4 mps 768 mmHg 76%
    05:00 -7°C° 0 mm 3 mps 768 mmHg 75%
    06:00 -7°C° 0 mm 3 mps 768 mmHg 74%
    07:00 -7°C° 0 mm 3 mps 768 mmHg 73%
    08:00 -7°C° 0 mm 3 mps 768 mmHg 72%
    09:00 -6°C° 0 mm 3 mps 768 mmHg 67%
    10:00 -5°C° 0 mm 3 mps 768 mmHg 62%
    11:00 -5°C° 0 mm 3 mps 768 mmHg 57%
    12:00 -4°C° 0 mm 3 mps 767 mmHg 55%
    13:00 -2°C° 0 mm 3 mps 767 mmHg 53%
    14:00 -2°C° 0 mm 3 mps 766 mmHg 52%
    15:00 -2°C° 0 mm 3 mps 766 mmHg 56%
    16:00 -4°C° 0 mm 3 mps 766 mmHg 60%
    17:00 -4°C° 0 mm 3 mps 765 mmHg 65%
    18:00 -4°C° 0 mm 3 mps 765 mmHg 67%
    19:00 -4°C° 0 mm 4 mps 765 mmHg 69%
    20:00 -5°C° 0 mm 5 mps 765 mmHg 72%
    21:00 -5°C° 0 mm 5 mps 765 mmHg 73%
    22:00 -5°C° 0 mm 5 mps 764 mmHg 74%
    23:00 -5°C° 0 mm 5 mps 764 mmHg 75%

    23 January, Wednesday

    Time Temperature Precipitation Wind Pressure Humidity
    00:00 -4°C° 0.1 mm 5 mps 763 mmHg 75%
    01:00 -4°C° 0.1 mm 5 mps 763 mmHg 75%
    02:00 -4°C° 0.1 mm 5 mps 763 mmHg 75%
    03:00 -4°C° 0.1 mm 5 mps 762 mmHg 75%
    04:00 -4°C° 0.1 mm 6 mps 762 mmHg 75%
    05:00 -4°C° 0.1 mm 6 mps 761 mmHg 75%
    06:00 -4°C° 0.1 mm 6 mps 761 mmHg 76%
    07:00 -4°C° 0.1 mm 6 mps 761 mmHg 77%
    08:00 -3°C° 0.1 mm 6 mps 760 mmHg 78%
    09:00 -3°C° 0.1 mm 6 mps 760 mmHg 79%
    10:00 -3°C° 0.1 mm 6 mps 760 mmHg 80%
    11:00 -2°C° 0.1 mm 6 mps 760 mmHg 80%
    12:00 -2°C° 0.3 mm 6 mps 760 mmHg 83%
    13:00 -1°C° 0.3 mm 5 mps 759 mmHg 85%
    14:00 -1°C° 0.3 mm 5 mps 759 mmHg 88%
    15:00 -1°C° 0.3 mm 5 mps 758 mmHg 90%
    16:00 -1°C° 0.3 mm 5 mps 758 mmHg 91%
    17:00 -1°C° 0.3 mm 5 mps 758 mmHg 93%
    18:00 -1°C° 0.7 mm 5 mps 758 mmHg 94%
    19:00 -1°C° 0.7 mm 5 mps 758 mmHg 94%
    20:00 0°C° 0.7 mm 5 mps 758 mmHg 95%
    21:00 0°C° 1.3 mm 5 mps 758 mmHg 96%
    22:00 0°C° 1.3 mm 5 mps 758 mmHg 96%
    23:00 0°C° 1.3 mm 5 mps 758 mmHg 97%

    24 January, Thursday

    Time Temperature Precipitation Wind Pressure Humidity
    00:00 0°C° 0.1 mm 5 mps 758 mmHg 97%
    01:00 0°C° 0.1 mm 4 mps 758 mmHg 97%
    02:00 0°C° 0.1 mm 4 mps 757 mmHg 97%
    03:00 +1°C° 0.1 mm 4 mps 757 mmHg 96%
    04:00 +1°C° 0.1 mm 4 mps 757 mmHg 96%
    05:00 +1°C° 0.1 mm 4 mps 757 mmHg 96%
    06:00 +1°C° 0 mm 4 mps 757 mmHg 95%
    07:00 +1°C° 0 mm 4 mps 757 mmHg 95%
    08:00 +3°C° 0 mm 4 mps 758 mmHg 95%
    09:00 +3°C° 0 mm 4 mps 758 mmHg 95%
    10:00 +3°C° 0 mm 4 mps 758 mmHg 95%
    11:00 +4°C° 0 mm 4 mps 758 mmHg 95%
    12:00 +4°C° 0 mm 4 mps 757 mmHg 93%
    13:00 +5°C° 0 mm 3 mps 757 mmHg 91%
    14:00 +5°C° 0 mm 3 mps 757 mmHg 90%
    15:00 +5°C° 0 mm 4 mps 756 mmHg 90%
    16:00 +4°C° 0 mm 4 mps 756 mmHg 90%
    17:00 +3°C° 0 mm 4 mps 756 mmHg 90%
    18:00 +2°C° 0 mm 5 mps 756 mmHg 91%
    19:00 +2°C° 0 mm 5 mps 756 mmHg 92%
    20:00 +1°C° 0 mm 5 mps 756 mmHg 93%
    21:00 +1°C° 0 mm 5 mps 756 mmHg 93%
    22:00 +1°C° 0 mm 5 mps 756 mmHg 92%
    23:00 +1°C° 0 mm 5 mps 755 mmHg 91%
    Show more